Time,TemperatureF,DewpointF,PressureIn,WindDirection,WindDirectionDegrees,WindSpeedMPH,WindSpeedGustMPH,Humidity,HourlyPrecipIn,Conditions,Clouds,dailyrainin,SoftwareType,DateUTC
2013-04-21 00:01:00,56.7,53.5,29.74,SSE,158,4.9,4.9,89,0.00,,---,0.00,VWS V14.01,2013-04-20 14:01:00,
2013-04-21 00:06:00,56.7,53.5,29.74,ESE,112,2.7,2.7,89,0.00,,---,0.00,VWS V14.01,2013-04-20 14:06:00,
2013-04-21 00:11:00,56.7,53.5,29.74,SSW,202,2.7,2.7,89,0.00,,---,0.00,VWS V14.01,2013-04-20 14:11:00,
2013-04-21 00:16:00,56.5,53.3,29.74,South,180,8.7,8.7,89,0.00,,---,0.00,VWS V14.01,2013-04-20 14:16:00,
2013-04-21 00:21:00,56.5,53.0,29.74,South,180,6.3,6.3,88,0.00,,---,0.00,VWS V14.01,2013-04-20 14:21:00,
2013-04-21 00:26:00,56.5,53.0,29.74,WSW,248,4.0,4.0,88,0.00,,---,0.00,VWS V14.01,2013-04-20 14:26:00,
2013-04-21 00:31:00,56.5,53.0,29.74,WSW,248,2.5,5.6,88,0.00,,---,0.00,VWS V14.01,2013-04-20 14:31:00,
2013-04-21 00:36:00,56.3,52.8,29.74,SW,225,3.4,3.4,88,0.00,,---,0.00,VWS V14.01,2013-04-20 14:36:00,
2013-04-21 00:41:00,56.3,52.8,29.74,SW,225,5.6,5.6,88,0.00,,---,0.00,VWS V14.01,2013-04-20 14:41:00,
2013-04-21 00:46:00,56.3,52.8,29.74,South,180,3.1,3.1,88,0.00,,---,0.00,VWS V14.01,2013-04-20 14:46:00,
2013-04-21 00:51:00,56.3,52.8,29.74,SSE,158,3.8,3.8,88,0.00,,---,0.00,VWS V14.01,2013-04-20 14:51:00,
2013-04-21 00:56:00,56.3,52.8,29.74,SSE,158,4.7,4.7,88,0.00,,---,0.00,VWS V14.01,2013-04-20 14:56:00,
2013-04-21 01:01:00,56.3,52.8,29.74,SW,225,1.6,3.8,88,0.00,,---,0.00,VWS V14.01,2013-04-20 15:01:00,
2013-04-21 01:06:00,56.1,52.6,29.74,SW,225,2.5,2.5,88,0.00,,---,0.00,VWS V14.01,2013-04-20 15:06:00,
2013-04-21 01:11:00,56.1,52.9,29.74,SSW,202,3.6,3.6,89,0.00,,---,0.00,VWS V14.01,2013-04-20 15:11:00,
2013-04-21 01:16:00,56.1,52.9,29.71,South,180,1.1,2.5,89,0.00,,---,0.00,VWS V14.01,2013-04-20 15:16:00,
2013-04-21 01:21:00,56.1,52.9,29.71,West,270,3.6,3.6,89,0.00,,---,0.00,VWS V14.01,2013-04-20 15:21:00,
2013-04-21 01:26:00,56.1,52.9,29.74,SSE,158,3.6,3.6,89,0.00,,---,0.00,VWS V14.01,2013-04-20 15:26:00,
2013-04-21 01:31:00,56.1,52.9,29.74,SW,225,2.7,2.7,89,0.00,,---,0.00,VWS V14.01,2013-04-20 15:31:00,
2013-04-21 01:36:00,56.1,52.9,29.74,WSW,248,3.6,3.6,89,0.00,,---,0.00,VWS V14.01,2013-04-20 15:36:00,
2013-04-21 01:41:00,56.1,52.9,29.74,South,180,1.6,3.4,89,0.00,,---,0.00,VWS V14.01,2013-04-20 15:41:00,
2013-04-21 01:46:00,55.9,52.8,29.74,SSW,202,3.4,3.4,89,0.00,,---,0.00,VWS V14.01,2013-04-20 15:46:00,
2013-04-21 01:51:00,55.9,52.8,29.74,West,270,2.9,2.9,89,0.00,,---,0.00,VWS V14.01,2013-04-20 15:51:00,
2013-04-21 01:56:00,55.9,52.8,29.74,West,270,0.0,3.4,89,0.00,,---,0.00,VWS V14.01,2013-04-20 15:56:00,
2013-04-21 02:01:00,55.9,52.8,29.74,ESE,112,3.6,3.6,89,0.00,,---,0.00,VWS V14.01,2013-04-20 16:01:00,
2013-04-21 02:06:00,55.9,52.8,29.74,South,180,5.8,5.8,89,0.00,,---,0.00,VWS V14.01,2013-04-20 16:06:00,
2013-04-21 02:11:00,55.9,52.8,29.74,SSW,202,6.0,6.0,89,0.00,,---,0.00,VWS V14.01,2013-04-20 16:11:00,
2013-04-21 02:16:00,55.9,52.8,29.71,West,270,4.3,4.3,89,0.00,,---,0.00,VWS V14.01,2013-04-20 16:16:00,
2013-04-21 02:21:00,55.9,52.8,29.71,SSW,202,3.1,3.1,89,0.00,,---,0.00,VWS V14.01,2013-04-20 16:21:00,
2013-04-21 02:26:00,55.9,52.8,29.74,SW,225,2.7,2.7,89,0.00,,---,0.00,VWS V14.01,2013-04-20 16:26:00,
2013-04-21 02:31:00,55.9,52.8,29.74,SSW,202,4.0,4.0,89,0.00,,---,0.00,VWS V14.01,2013-04-20 16:31:00,
2013-04-21 02:36:00,55.9,52.4,29.74,NNW,338,4.0,4.0,88,0.00,,---,0.00,VWS V14.01,2013-04-20 16:36:00,
2013-04-21 02:41:00,55.8,52.6,29.74,West,270,0.0,1.6,89,0.00,,---,0.00,VWS V14.01,2013-04-20 16:41:00,
2013-04-21 02:46:00,55.8,52.6,29.74,South,180,4.9,4.9,89,0.00,,---,0.00,VWS V14.01,2013-04-20 16:46:00,
2013-04-21 02:51:00,55.8,52.6,29.74,SW,225,5.4,5.4,89,0.00,,---,0.00,VWS V14.01,2013-04-20 16:51:00,
2013-04-21 02:56:00,55.8,52.6,29.71,West,270,4.3,4.3,89,0.00,,---,0.00,VWS V14.01,2013-04-20 16:56:00,
2013-04-21 03:01:00,55.8,52.6,29.71,WNW,292,2.0,2.0,89,0.00,,---,0.00,VWS V14.01,2013-04-20 17:01:00,
2013-04-21 03:06:00,55.8,52.3,29.71,SW,225,4.9,5.4,88,0.00,,---,0.00,VWS V14.01,2013-04-20 17:06:00,
2013-04-21 03:11:00,55.6,52.1,29.71,SE,135,2.5,2.5,88,0.00,,---,0.00,VWS V14.01,2013-04-20 17:11:00,
2013-04-21 03:16:00,55.6,52.1,29.71,West,270,1.6,1.6,88,0.00,,---,0.00,VWS V14.01,2013-04-20 17:16:00,
2013-04-21 03:21:00,55.6,52.1,29.71,SSW,202,3.8,7.4,88,0.00,,---,0.00,VWS V14.01,2013-04-20 17:21:00,
2013-04-21 03:26:00,55.4,51.9,29.71,WNW,292,7.2,7.2,88,0.00,,---,0.00,VWS V14.01,2013-04-20 17:26:00,
2013-04-21 03:31:00,55.4,51.9,29.71,SSE,158,4.7,4.7,88,0.00,,---,0.00,VWS V14.01,2013-04-20 17:31:00,
2013-04-21 03:36:00,55.4,51.9,29.71,SE,135,2.2,2.2,88,0.00,,---,0.00,VWS V14.01,2013-04-20 17:36:00,
2013-04-21 03:41:00,55.4,51.9,29.71,SW,225,5.4,5.4,88,0.00,,---,0.00,VWS V14.01,2013-04-20 17:41:00,
2013-04-21 03:46:00,55.4,51.9,29.71,SW,225,3.6,4.9,88,0.00,,---,0.00,VWS V14.01,2013-04-20 17:46:00,
2013-04-21 03:51:00,55.2,51.7,29.71,SSW,202,0.0,2.9,88,0.00,,---,0.00,VWS V14.01,2013-04-20 17:51:00,
2013-04-21 03:56:00,55.2,51.7,29.71,West,270,2.0,2.0,88,0.00,,---,0.00,VWS V14.01,2013-04-20 17:56:00,
2013-04-21 04:01:00,55.2,51.7,29.71,South,180,3.1,4.0,88,0.00,,---,0.00,VWS V14.01,2013-04-20 18:01:00,
2013-04-21 04:06:00,55.2,51.7,29.71,SW,225,2.5,2.5,88,0.00,,---,0.00,VWS V14.01,2013-04-20 18:06:00,
2013-04-21 04:11:00,55.0,51.2,29.71,SW,225,5.6,5.6,87,0.00,,---,0.00,VWS V14.01,2013-04-20 18:11:00,
2013-04-21 04:16:00,55.0,51.2,29.71,South,180,3.8,3.8,87,0.00,,---,0.00,VWS V14.01,2013-04-20 18:16:00,
2013-04-21 04:21:00,55.0,51.2,29.71,South,180,3.6,3.6,87,0.00,,---,0.00,VWS V14.01,2013-04-20 18:21:00,
2013-04-21 04:26:00,54.9,51.1,29.71,SSE,158,2.9,2.9,87,0.00,,---,0.00,VWS V14.01,2013-04-20 18:26:00,
2013-04-21 04:31:00,54.9,51.1,29.71,South,180,2.7,2.9,87,0.00,,---,0.00,VWS V14.01,2013-04-20 18:31:00,
2013-04-21 04:36:00,54.9,51.1,29.71,SW,225,4.3,4.3,87,0.00,,---,0.00,VWS V14.01,2013-04-20 18:36:00,
2013-04-21 04:41:00,54.9,51.1,29.71,SSE,158,4.3,4.3,87,0.00,,---,0.00,VWS V14.01,2013-04-20 18:41:00,
2013-04-21 04:46:00,54.9,51.1,29.71,South,180,2.9,2.9,87,0.00,,---,0.00,VWS V14.01,2013-04-20 18:46:00,
2013-04-21 04:51:00,54.7,50.9,29.71,SW,225,1.3,1.3,87,0.00,,---,0.00,VWS V14.01,2013-04-20 18:51:00,
2013-04-21 04:56:00,54.7,50.9,29.71,SW,225,2.5,2.7,87,0.00,,---,0.00,VWS V14.01,2013-04-20 18:56:00,
2013-04-21 05:01:00,54.7,50.6,29.71,SW,225,2.5,2.7,86,0.00,,---,0.00,VWS V14.01,2013-04-20 19:01:00,
2013-04-21 05:06:00,54.7,50.6,29.71,SSE,158,4.9,4.9,86,0.00,,---,0.00,VWS V14.01,2013-04-20 19:06:00,
2013-04-21 05:11:00,54.7,50.6,29.74,SW,225,2.0,2.9,86,0.00,,---,0.00,VWS V14.01,2013-04-20 19:11:00,
2013-04-21 05:16:00,54.7,50.6,29.74,SSW,202,4.3,4.3,86,0.00,,---,0.00,VWS V14.01,2013-04-20 19:16:00,
2013-04-21 05:21:00,54.7,50.6,29.74,SSE,158,3.6,3.6,86,0.00,,---,0.00,VWS V14.01,2013-04-20 19:21:00,
2013-04-21 05:26:00,54.5,50.4,29.74,SSE,158,2.2,2.5,86,0.00,,---,0.00,VWS V14.01,2013-04-20 19:26:00,
2013-04-21 05:31:00,54.5,50.4,29.74,SSE,158,4.7,4.7,86,0.00,,---,0.00,VWS V14.01,2013-04-20 19:31:00,
2013-04-21 05:36:00,54.5,50.4,29.74,SW,225,2.9,2.9,86,0.00,,---,0.00,VWS V14.01,2013-04-20 19:36:00,
2013-04-21 05:41:00,54.5,50.4,29.74,NW,315,3.4,3.4,86,0.00,,---,0.00,VWS V14.01,2013-04-20 19:41:00,
2013-04-21 05:46:00,54.5,50.4,29.74,SW,225,3.4,3.4,86,0.00,,---,0.00,VWS V14.01,2013-04-20 19:46:00,
2013-04-21 05:51:00,54.5,50.4,29.74,West,270,4.3,4.3,86,0.00,,---,0.00,VWS V14.01,2013-04-20 19:51:00,
2013-04-21 05:56:00,54.3,50.2,29.74,SW,225,3.6,3.6,86,0.00,,---,0.00,VWS V14.01,2013-04-20 19:56:00,
2013-04-21 06:01:00,54.5,50.1,29.74,SSW,202,4.0,4.0,85,0.00,,---,0.00,VWS V14.01,2013-04-20 20:01:00,
2013-04-21 06:06:00,54.5,50.1,29.74,SW,225,3.4,3.4,85,0.00,,---,0.00,VWS V14.01,2013-04-20 20:06:00,
2013-04-21 06:11:00,54.3,49.9,29.74,NW,315,3.6,3.6,85,0.00,,---,0.00,VWS V14.01,2013-04-20 20:11:00,
2013-04-21 06:16:00,54.3,49.9,29.74,SE,135,4.7,4.7,85,0.00,,---,0.00,VWS V14.01,2013-04-20 20:16:00,
2013-04-21 06:21:00,54.3,49.9,29.74,SSE,158,1.3,4.3,85,0.00,,---,0.00,VWS V14.01,2013-04-20 20:21:00,
2013-04-21 06:26:00,54.3,49.9,29.74,South,180,1.1,2.5,85,0.00,,---,0.00,VWS V14.01,2013-04-20 20:26:00,
2013-04-21 06:31:00,54.1,49.7,29.74,South,180,3.1,3.1,85,0.00,,---,0.00,VWS V14.01,2013-04-20 20:31:00,
2013-04-21 06:36:00,54.1,49.7,29.74,SSE,158,1.1,1.1,85,0.00,,---,0.00,VWS V14.01,2013-04-20 20:36:00,
2013-04-21 06:41:00,54.1,49.7,29.74,WSW,248,1.6,1.6,85,0.00,,---,0.00,VWS V14.01,2013-04-20 20:41:00,
2013-04-21 06:46:00,54.1,50.0,29.74,West,270,2.9,3.1,86,0.00,,---,0.00,VWS V14.01,2013-04-20 20:46:00,
2013-04-21 06:51:00,54.1,50.0,29.74,West,270,3.6,3.6,86,0.00,,---,0.00,VWS V14.01,2013-04-20 20:51:00,
2013-04-21 06:56:00,54.0,49.9,29.74,West,270,3.4,3.4,86,0.00,,---,0.00,VWS V14.01,2013-04-20 20:56:00,
2013-04-21 07:01:00,54.0,49.9,29.74,NW,315,3.4,3.4,86,0.00,,---,0.00,VWS V14.01,2013-04-20 21:01:00,
2013-04-21 07:06:00,54.0,49.9,29.74,SSE,158,2.5,3.6,86,0.00,,---,0.00,VWS V14.01,2013-04-20 21:06:00,
2013-04-21 07:11:00,54.0,49.9,29.76,WSW,248,1.3,1.3,86,0.00,,---,0.00,VWS V14.01,2013-04-20 21:11:00,
2013-04-21 07:16:00,54.0,49.9,29.76,NW,315,2.5,2.5,86,0.00,,---,0.00,VWS V14.01,2013-04-20 21:16:00,
2013-04-21 07:21:00,54.0,49.9,29.76,SW,225,3.1,3.1,86,0.00,,---,0.00,VWS V14.01,2013-04-20 21:21:00,
2013-04-21 07:26:00,54.0,49.9,29.76,SSW,202,1.6,3.1,86,0.00,,---,0.00,VWS V14.01,2013-04-20 21:26:00,
2013-04-21 07:31:00,54.1,50.0,29.76,SW,225,0.9,0.9,86,0.00,,---,0.00,VWS V14.01,2013-04-20 21:31:00,
2013-04-21 07:36:00,54.1,50.0,29.76,SW,225,4.3,4.3,86,0.00,,---,0.00,VWS V14.01,2013-04-20 21:36:00,
2013-04-21 07:41:00,54.1,50.0,29.76,SW,225,0.9,2.5,86,0.00,,---,0.00,VWS V14.01,2013-04-20 21:41:00,
2013-04-21 07:46:00,54.1,50.0,29.76,NW,315,3.4,3.4,86,0.00,,---,0.00,VWS V14.01,2013-04-20 21:46:00,
2013-04-21 07:51:00,54.3,50.2,29.76,SSW,202,3.1,3.1,86,0.00,,---,0.00,VWS V14.01,2013-04-20 21:51:00,
2013-04-21 07:56:00,54.3,50.2,29.76,SW,225,1.1,1.1,86,0.00,,---,0.00,VWS V14.01,2013-04-20 21:56:00,
2013-04-21 08:01:00,54.5,50.4,29.76,SSE,158,2.5,2.5,86,0.00,,---,0.00,VWS V14.01,2013-04-20 22:01:00,
2013-04-21 08:06:00,54.5,50.4,29.76,SW,225,3.4,3.4,86,0.00,,---,0.00,VWS V14.01,2013-04-20 22:06:00,
2013-04-21 08:11:00,54.7,50.6,29.76,West,270,4.0,4.0,86,0.00,,---,0.00,VWS V14.01,2013-04-20 22:11:00,
2013-04-21 08:16:00,54.9,50.8,29.76,SSW,202,3.1,3.1,86,0.00,,---,0.00,VWS V14.01,2013-04-20 22:16:00,
2013-04-21 08:21:00,55.0,50.9,29.76,WSW,248,3.1,3.1,86,0.00,,---,0.00,VWS V14.01,2013-04-20 22:21:00,
2013-04-21 08:26:00,55.4,51.0,29.76,SSW,202,4.3,4.3,85,0.00,,---,0.00,VWS V14.01,2013-04-20 22:26:00,
2013-04-21 08:31:00,55.6,51.2,29.76,SE,135,5.4,5.4,85,0.00,,---,0.00,VWS V14.01,2013-04-20 22:31:00,
2013-04-21 08:36:00,55.8,51.0,29.76,SW,225,3.1,4.7,84,0.00,,---,0.00,VWS V14.01,2013-04-20 22:36:00,
2013-04-21 08:41:00,55.9,51.2,29.76,SW,225,3.4,3.4,84,0.00,,---,0.00,VWS V14.01,2013-04-20 22:41:00,
2013-04-21 08:46:00,56.3,51.5,29.76,SW,225,2.0,3.1,84,0.00,,---,0.00,VWS V14.01,2013-04-20 22:46:00,
2013-04-21 08:51:00,56.5,51.7,29.76,SW,225,3.1,4.7,84,0.00,,---,0.00,VWS V14.01,2013-04-20 22:51:00,
2013-04-21 08:56:00,56.7,51.6,29.76,East,90,2.0,3.8,83,0.00,,---,0.00,VWS V14.01,2013-04-20 22:56:00,
2013-04-21 09:01:00,56.7,51.6,29.76,WSW,248,4.9,6.0,83,0.00,,---,0.00,VWS V14.01,2013-04-20 23:01:00,
2013-04-21 09:06:00,56.7,51.6,29.76,SW,225,3.6,4.0,83,0.00,,---,0.00,VWS V14.01,2013-04-20 23:06:00,
2013-04-21 09:11:00,57.6,51.8,29.76,WSW,248,3.6,3.6,81,0.00,,---,0.00,VWS V14.01,2013-04-20 23:11:00,
2013-04-21 09:16:00,57.9,52.1,29.76,SW,225,2.7,2.7,81,0.00,,---,0.00,VWS V14.01,2013-04-20 23:16:00,
2013-04-21 09:21:00,58.1,52.3,29.76,SE,135,2.7,2.7,81,0.00,,---,0.00,VWS V14.01,2013-04-20 23:21:00,
2013-04-21 09:26:00,58.5,52.7,29.76,SW,225,2.9,3.6,81,0.00,,---,0.00,VWS V14.01,2013-04-20 23:26:00,
2013-04-21 09:31:00,58.8,52.7,29.76,NNW,338,2.9,3.6,80,0.00,,---,0.00,VWS V14.01,2013-04-20 23:31:00,
2013-04-21 09:36:00,59.2,52.7,29.76,SW,225,2.9,4.0,79,0.00,,---,0.00,VWS V14.01,2013-04-20 23:36:00,
2013-04-21 09:41:00,59.5,53.0,29.76,SW,225,2.2,2.2,79,0.00,,---,0.00,VWS V14.01,2013-04-20 23:41:00,
2013-04-21 09:46:00,60.1,53.2,29.76,SW,225,3.8,3.8,78,0.00,,---,0.00,VWS V14.01,2013-04-20 23:46:00,
2013-04-21 09:51:00,60.4,53.2,29.76,WSW,248,4.9,4.9,77,0.00,,---,0.00,VWS V14.01,2013-04-20 23:51:00,
2013-04-21 09:56:00,60.6,53.4,29.74,SSW,202,1.6,2.0,77,0.00,,---,0.00,VWS V14.01,2013-04-20 23:56:00,
2013-04-21 10:01:00,61.0,53.0,29.74,WSW,248,2.5,3.1,75,0.00,,---,0.00,VWS V14.01,2013-04-21 00:01:00,
2013-04-21 10:06:00,61.3,52.6,29.74,SE,135,1.3,2.5,73,0.00,,---,0.00,VWS V14.01,2013-04-21 00:06:00,
2013-04-21 10:11:00,61.3,52.6,29.74,SW,225,2.7,2.7,73,0.00,,---,0.00,VWS V14.01,2013-04-21 00:11:00,
2013-04-21 10:13:00,61.3,52.6,29.74,SW,225,1.3,1.3,73,0.00,,---,0.00,VWS V14.01,2013-04-21 00:13:00,
2013-04-21 12:45:00,61.3,52.6,29.74,SW,225,1.3,1.3,73,0.00,,---,0.00,VWS V14.01,2013-04-21 02:45:00,
2013-04-21 12:50:00,68.4,54.4,29.68,ESE,112,0.9,4.0,61,0.00,,---,0.00,VWS V14.01,2013-04-21 02:50:00,
2013-04-21 12:55:00,68.4,54.4,29.65,SW,225,3.6,3.6,61,0.00,,---,0.00,VWS V14.01,2013-04-21 02:55:00,
2013-04-21 13:00:00,68.5,54.1,29.65,SSW,202,2.2,2.2,60,0.00,,---,0.00,VWS V14.01,2013-04-21 03:00:00,
2013-04-21 13:05:00,68.9,53.5,29.65,ESE,112,2.9,2.9,58,0.00,,---,0.00,VWS V14.01,2013-04-21 03:05:00,
2013-04-21 13:10:00,68.7,53.8,29.65,ESE,112,1.3,1.3,59,0.00,,---,0.00,VWS V14.01,2013-04-21 03:10:00,
2013-04-21 13:15:00,68.5,52.7,29.65,West,270,2.0,2.0,57,0.00,,---,0.00,VWS V14.01,2013-04-21 03:15:00,
2013-04-21 13:20:00,68.9,54.0,29.65,SSE,158,2.0,2.5,59,0.00,,---,0.00,VWS V14.01,2013-04-21 03:20:00,
2013-04-21 13:25:00,69.3,54.3,29.65,NW,315,4.9,4.9,59,0.00,,---,0.00,VWS V14.01,2013-04-21 03:25:00,
2013-04-21 13:30:00,69.4,54.0,29.65,WSW,248,1.3,3.4,58,0.00,,---,0.00,VWS V14.01,2013-04-21 03:30:00,
2013-04-21 13:35:00,69.4,54.0,29.65,SW,225,0.0,0.0,58,0.00,,---,0.00,VWS V14.01,2013-04-21 03:35:00,
2013-04-21 13:40:00,69.3,53.9,29.65,SSE,158,2.2,2.2,58,0.00,,---,0.00,VWS V14.01,2013-04-21 03:40:00,
2013-04-21 13:45:00,69.4,54.0,29.65,SW,225,2.0,2.0,58,0.00,,---,0.00,VWS V14.01,2013-04-21 03:45:00,
2013-04-21 13:50:00,68.7,52.4,29.65,ESE,112,4.9,4.9,56,0.00,,---,0.00,VWS V14.01,2013-04-21 03:50:00,
2013-04-21 13:55:00,68.5,52.2,29.65,SE,135,1.6,3.6,56,0.00,,---,0.00,VWS V14.01,2013-04-21 03:55:00,
2013-04-21 14:00:00,68.5,53.2,29.65,SE,135,2.5,2.5,58,0.00,,---,0.00,VWS V14.01,2013-04-21 04:00:00,
2013-04-21 14:01:00,68.5,53.2,29.65,SE,135,2.2,2.5,58,0.00,,---,0.00,VWS V14.01,2013-04-21 04:01:00,
2013-04-21 14:06:00,68.7,53.4,29.65,ESE,112,2.0,2.0,58,0.00,,---,0.00,VWS V14.01,2013-04-21 04:06:00,
2013-04-21 14:11:00,68.5,52.7,29.65,SSE,158,0.9,1.3,57,0.00,,---,0.00,VWS V14.01,2013-04-21 04:11:00,
2013-04-21 14:16:00,68.9,53.5,29.65,West,270,2.9,2.9,58,0.00,,---,0.00,VWS V14.01,2013-04-21 04:16:00,
2013-04-21 14:21:00,68.9,53.5,29.65,WSW,248,1.3,2.5,58,0.00,,---,0.00,VWS V14.01,2013-04-21 04:21:00,
2013-04-21 14:26:00,68.7,53.8,29.65,NW,315,2.0,2.7,59,0.00,,---,0.00,VWS V14.01,2013-04-21 04:26:00,
2013-04-21 14:31:00,68.7,53.4,29.65,SE,135,1.6,6.0,58,0.00,,---,0.00,VWS V14.01,2013-04-21 04:31:00,
2013-04-21 14:36:00,68.0,52.7,29.65,ESE,112,2.5,2.5,58,0.00,,---,0.00,VWS V14.01,2013-04-21 04:36:00,
2013-04-21 14:41:00,68.0,53.2,29.65,ESE,112,0.0,0.0,59,0.00,,---,0.00,VWS V14.01,2013-04-21 04:41:00,
2013-04-21 14:46:00,67.8,53.4,29.65,SW,225,2.5,2.5,60,0.00,,---,0.00,VWS V14.01,2013-04-21 04:46:00,
2013-04-21 14:51:00,67.3,53.4,29.65,SSE,158,2.7,2.7,61,0.00,,---,0.00,VWS V14.01,2013-04-21 04:51:00,
2013-04-21 14:56:00,66.9,53.5,29.65,NE,45,0.9,0.9,62,0.00,,---,0.00,VWS V14.01,2013-04-21 04:56:00,
2013-04-21 15:01:00,66.6,54.0,29.65,East,90,1.3,1.3,64,0.00,,---,0.00,VWS V14.01,2013-04-21 05:01:00,
2013-04-21 15:06:00,66.2,53.7,29.65,ESE,112,0.0,1.3,64,0.00,,---,0.00,VWS V14.01,2013-04-21 05:06:00,
2013-04-21 15:11:00,66.2,53.2,29.65,NE,45,0.0,2.0,63,0.00,,---,0.00,VWS V14.01,2013-04-21 05:11:00,
2013-04-21 15:16:00,65.7,53.6,29.65,ESE,112,1.1,2.0,65,0.00,,---,0.00,VWS V14.01,2013-04-21 05:16:00,
2013-04-21 15:21:00,65.7,53.6,29.65,SE,135,2.5,2.5,65,0.00,,---,0.00,VWS V14.01,2013-04-21 05:21:00,
2013-04-21 15:26:00,65.7,54.0,29.65,SE,135,1.6,1.6,66,0.00,,---,0.00,VWS V14.01,2013-04-21 05:26:00,
2013-04-21 15:31:00,65.5,53.4,29.65,ESE,112,0.0,1.1,65,0.00,,---,0.00,VWS V14.01,2013-04-21 05:31:00,
2013-04-21 15:36:00,65.1,53.5,29.65,SE,135,0.0,0.0,66,0.00,,---,0.00,VWS V14.01,2013-04-21 05:36:00,
2013-04-21 15:41:00,65.3,53.7,29.65,ESE,112,1.6,1.6,66,0.00,,---,0.00,VWS V14.01,2013-04-21 05:41:00,
2013-04-21 15:46:00,64.9,53.3,29.65,East,90,0.0,0.0,66,0.00,,---,0.00,VWS V14.01,2013-04-21 05:46:00,
2013-04-21 15:51:00,64.6,53.4,29.65,ENE,68,1.3,1.3,67,0.00,,---,0.00,VWS V14.01,2013-04-21 05:51:00,
2013-04-21 15:56:00,64.6,53.4,29.65,ESE,112,0.0,0.0,67,0.00,,---,0.00,VWS V14.01,2013-04-21 05:56:00,
2013-04-21 16:01:00,64.4,53.2,29.65,NNE,22,0.0,0.0,67,0.00,,---,0.00,VWS V14.01,2013-04-21 06:01:00,
2013-04-21 16:06:00,63.9,53.5,29.65,East,90,0.0,0.0,69,0.00,,---,0.00,VWS V14.01,2013-04-21 06:06:00,
2013-04-21 16:11:00,63.9,53.5,29.65,East,90,0.0,0.0,69,0.00,,---,0.00,VWS V14.01,2013-04-21 06:11:00,
2013-04-21 16:16:00,63.9,53.5,29.65,ESE,112,0.0,0.0,69,0.00,,---,0.00,VWS V14.01,2013-04-21 06:16:00,
2013-04-21 16:21:00,63.5,53.2,29.65,East,90,0.0,0.0,69,0.00,,---,0.00,VWS V14.01,2013-04-21 06:21:00,
2013-04-21 16:26:00,63.5,53.2,29.65,East,90,0.0,0.0,69,0.00,,---,0.00,VWS V14.01,2013-04-21 06:26:00,
2013-04-21 16:31:00,63.3,53.0,29.65,East,90,0.0,0.0,69,0.00,,---,0.00,VWS V14.01,2013-04-21 06:31:00,
2013-04-21 16:36:00,63.0,52.6,29.65,East,90,0.0,0.0,69,0.00,,---,0.00,VWS V14.01,2013-04-21 06:36:00,
2013-04-21 16:41:00,62.6,52.7,29.65,East,90,0.0,0.0,70,0.00,,---,0.00,VWS V14.01,2013-04-21 06:41:00,
2013-04-21 16:46:00,62.6,52.3,29.65,East,90,0.0,0.0,69,0.00,,---,0.00,VWS V14.01,2013-04-21 06:46:00,
2013-04-21 16:51:00,62.6,52.7,29.65,East,90,0.0,0.0,70,0.00,,---,0.00,VWS V14.01,2013-04-21 06:51:00,
2013-04-21 16:56:00,62.4,52.5,29.65,East,90,0.0,0.0,70,0.00,,---,0.00,VWS V14.01,2013-04-21 06:56:00,
2013-04-21 17:01:00,62.2,52.7,29.65,East,90,0.0,0.0,71,0.00,,---,0.00,VWS V14.01,2013-04-21 07:01:00,
2013-04-21 17:06:00,61.9,52.4,29.65,East,90,0.0,0.0,71,0.00,,---,0.00,VWS V14.01,2013-04-21 07:06:00,
2013-04-21 17:11:00,61.9,52.4,29.65,East,90,0.0,0.0,71,0.00,,---,0.00,VWS V14.01,2013-04-21 07:11:00,
2013-04-21 17:16:00,61.9,52.8,29.65,East,90,0.0,0.0,72,0.00,,---,0.00,VWS V14.01,2013-04-21 07:16:00,
2013-04-21 17:21:00,61.7,52.6,29.65,East,90,0.0,0.0,72,0.00,,---,0.00,VWS V14.01,2013-04-21 07:21:00,
2013-04-21 17:26:00,61.5,52.4,29.65,East,90,0.0,0.0,72,0.00,,---,0.00,VWS V14.01,2013-04-21 07:26:00,
2013-04-21 17:31:00,61.3,52.2,29.65,East,90,0.0,0.0,72,0.00,,---,0.00,VWS V14.01,2013-04-21 07:31:00,
2013-04-21 17:36:00,61.2,52.1,29.65,East,90,0.0,0.0,72,0.00,,---,0.00,VWS V14.01,2013-04-21 07:36:00,
2013-04-21 17:42:00,61.0,52.3,29.65,East,90,0.0,0.0,73,0.00,,---,0.00,VWS V14.01,2013-04-21 07:42:00,
2013-04-21 17:47:00,60.8,52.1,29.65,East,90,0.0,0.0,73,0.00,,---,0.00,VWS V14.01,2013-04-21 07:47:00,
2013-04-21 17:52:00,60.8,52.1,29.65,East,90,0.0,0.0,73,0.00,,---,0.00,VWS V14.01,2013-04-21 07:52:00,
2013-04-21 17:57:00,60.6,52.3,29.65,ENE,68,0.0,0.0,74,0.00,,---,0.00,VWS V14.01,2013-04-21 07:57:00,
2013-04-21 18:02:00,60.4,52.1,29.65,NNE,22,0.0,0.0,74,0.00,,---,0.00,VWS V14.01,2013-04-21 08:02:00,
2013-04-21 18:07:00,60.4,52.1,29.65,NE,45,0.0,0.0,74,0.00,,---,0.00,VWS V14.01,2013-04-21 08:07:00,
2013-04-21 18:12:00,60.3,52.0,29.65,NE,45,0.0,0.0,74,0.00,,---,0.00,VWS V14.01,2013-04-21 08:12:00,
2013-04-21 18:17:00,60.3,52.0,29.65,NNE,22,1.3,1.3,74,0.00,,---,0.00,VWS V14.01,2013-04-21 08:17:00,
2013-04-21 18:22:00,60.1,51.8,29.65,NNE,22,0.0,0.0,74,0.00,,---,0.00,VWS V14.01,2013-04-21 08:22:00,
2013-04-21 18:27:00,60.1,51.4,29.65,NNE,22,1.3,1.3,73,0.00,,---,0.00,VWS V14.01,2013-04-21 08:27:00,
2013-04-21 18:32:00,60.1,51.4,29.65,NNE,22,0.0,0.0,73,0.00,,---,0.00,VWS V14.01,2013-04-21 08:32:00,
2013-04-21 18:37:00,59.9,51.2,29.65,North,0,1.1,1.3,73,0.00,,---,0.00,VWS V14.01,2013-04-21 08:37:00,
2013-04-21 18:42:00,59.9,51.2,29.65,North,0,0.9,0.9,73,0.00,,---,0.00,VWS V14.01,2013-04-21 08:42:00,
2013-04-21 18:47:00,59.7,51.1,29.65,North,0,1.6,1.6,73,0.00,,---,0.00,VWS V14.01,2013-04-21 08:47:00,
2013-04-21 18:52:00,59.7,51.1,29.65,North,0,0.0,0.9,73,0.00,,---,0.00,VWS V14.01,2013-04-21 08:52:00,
2013-04-21 18:57:00,59.5,50.9,29.65,NE,45,0.0,0.0,73,0.00,,---,0.00,VWS V14.01,2013-04-21 08:57:00,
2013-04-21 19:02:00,59.5,50.9,29.65,NNE,22,0.0,0.0,73,0.00,,---,0.00,VWS V14.01,2013-04-21 09:02:00,
2013-04-21 19:07:00,59.4,50.7,29.65,NNE,22,0.0,0.0,73,0.00,,---,0.00,VWS V14.01,2013-04-21 09:07:00,
2013-04-21 19:12:00,59.4,50.7,29.65,NNE,22,0.0,0.0,73,0.00,,---,0.00,VWS V14.01,2013-04-21 09:12:00,
2013-04-21 19:17:00,59.4,51.1,29.65,North,0,0.9,1.3,74,0.00,,---,0.00,VWS V14.01,2013-04-21 09:17:00,
2013-04-21 19:22:00,59.2,50.9,29.65,North,0,2.0,2.0,74,0.00,,---,0.00,VWS V14.01,2013-04-21 09:22:00,
2013-04-21 19:27:00,59.4,51.1,29.65,NW,315,1.6,2.0,74,0.00,,---,0.00,VWS V14.01,2013-04-21 09:27:00,
2013-04-21 19:32:00,59.4,51.1,29.65,North,0,1.3,2.0,74,0.00,,---,0.00,VWS V14.01,2013-04-21 09:32:00,
2013-04-21 19:37:00,59.4,51.1,29.65,NNW,338,2.7,2.7,74,0.00,,---,0.00,VWS V14.01,2013-04-21 09:37:00,
2013-04-21 19:42:00,59.4,51.1,29.68,NW,315,1.3,2.2,74,0.00,,---,0.00,VWS V14.01,2013-04-21 09:42:00,
2013-04-21 19:47:00,59.4,51.1,29.68,NNW,338,1.6,2.0,74,0.00,,---,0.00,VWS V14.01,2013-04-21 09:47:00,
2013-04-21 19:52:00,59.4,51.1,29.68,North,0,1.3,1.3,74,0.00,,---,0.00,VWS V14.01,2013-04-21 09:52:00,
2013-04-21 19:57:00,59.4,51.5,29.68,NW,315,2.5,2.5,75,0.00,,---,0.00,VWS V14.01,2013-04-21 09:57:00,
2013-04-21 20:02:00,59.4,51.5,29.68,North,0,2.0,2.0,75,0.00,,---,0.00,VWS V14.01,2013-04-21 10:02:00,
2013-04-21 20:07:00,59.4,51.5,29.68,NW,315,1.6,2.7,75,0.00,,---,0.00,VWS V14.01,2013-04-21 10:07:00,
2013-04-21 20:12:00,59.5,51.6,29.68,NW,315,0.9,0.9,75,0.00,,---,0.00,VWS V14.01,2013-04-21 10:12:00,
2013-04-21 20:17:00,59.5,51.6,29.68,North,0,0.0,1.3,75,0.00,,---,0.00,VWS V14.01,2013-04-21 10:17:00,
2013-04-21 20:22:00,59.5,51.6,29.68,NNW,338,1.6,2.0,75,0.00,,---,0.00,VWS V14.01,2013-04-21 10:22:00,
2013-04-21 20:27:00,59.5,52.0,29.68,West,270,1.6,1.6,76,0.00,,---,0.00,VWS V14.01,2013-04-21 10:27:00,
2013-04-21 20:32:00,59.4,51.8,29.68,NW,315,0.9,2.0,76,0.00,,---,0.00,VWS V14.01,2013-04-21 10:32:00,
2013-04-21 20:37:00,59.4,51.8,29.68,West,270,1.3,2.9,76,0.00,,---,0.00,VWS V14.01,2013-04-21 10:37:00,
2013-04-21 20:42:00,59.4,51.8,29.68,NNW,338,0.0,1.6,76,0.00,,---,0.00,VWS V14.01,2013-04-21 10:42:00,
2013-04-21 20:47:00,59.4,51.8,29.68,NNW,338,2.2,2.2,76,0.00,,---,0.00,VWS V14.01,2013-04-21 10:47:00,
2013-04-21 20:52:00,59.4,52.2,29.68,NW,315,0.0,1.6,77,0.00,,---,0.00,VWS V14.01,2013-04-21 10:52:00,
2013-04-21 20:57:00,59.2,52.0,29.68,NW,315,2.0,3.4,77,0.00,,---,0.00,VWS V14.01,2013-04-21 10:57:00,
2013-04-21 21:02:00,59.2,52.3,29.68,West,270,1.6,1.6,78,0.00,,---,0.00,VWS V14.01,2013-04-21 11:02:00,
2013-04-21 21:07:00,59.2,52.3,29.68,NNW,338,3.1,3.1,78,0.00,,---,0.00,VWS V14.01,2013-04-21 11:07:00,
2013-04-21 21:12:00,59.2,52.3,29.68,NNW,338,3.6,3.6,78,0.00,,---,0.00,VWS V14.01,2013-04-21 11:12:00,
2013-04-21 21:17:00,59.2,52.3,29.68,NNW,338,1.1,2.7,78,0.00,,---,0.00,VWS V14.01,2013-04-21 11:17:00,
2013-04-21 21:22:00,59.0,52.2,29.68,NW,315,0.0,2.0,78,0.00,,---,0.00,VWS V14.01,2013-04-21 11:22:00,
2013-04-21 21:27:00,59.0,52.2,29.68,NNW,338,2.0,2.5,78,0.00,,---,0.00,VWS V14.01,2013-04-21 11:27:00,
2013-04-21 21:32:00,59.0,52.2,29.68,NW,315,0.0,2.5,78,0.00,,---,0.00,VWS V14.01,2013-04-21 11:32:00,
2013-04-21 21:37:00,58.8,52.3,29.68,NNW,338,1.6,1.6,79,0.00,,---,0.00,VWS V14.01,2013-04-21 11:37:00,
2013-04-21 21:42:00,58.8,52.3,29.68,WNW,292,2.7,3.6,79,0.00,,---,0.00,VWS V14.01,2013-04-21 11:42:00,
2013-04-21 21:47:00,58.8,52.3,29.68,NW,315,1.3,1.6,79,0.00,,---,0.00,VWS V14.01,2013-04-21 11:47:00,
2013-04-21 21:52:00,58.8,52.3,29.68,North,0,1.6,1.6,79,0.00,,---,0.00,VWS V14.01,2013-04-21 11:52:00,
2013-04-21 21:57:00,58.8,52.3,29.68,North,0,2.5,2.5,79,0.00,,---,0.00,VWS V14.01,2013-04-21 11:57:00,
2013-04-21 22:02:00,58.8,52.3,29.68,NNW,338,2.0,3.4,79,0.00,,---,0.00,VWS V14.01,2013-04-21 12:02:00,
2013-04-21 22:07:00,58.8,52.7,29.68,NNE,22,2.9,2.9,80,0.00,,---,0.00,VWS V14.01,2013-04-21 12:07:00,
2013-04-21 22:12:00,58.8,52.7,29.65,WNW,292,1.6,2.7,80,0.00,,---,0.00,VWS V14.01,2013-04-21 12:12:00,
2013-04-21 22:17:00,58.8,52.7,29.65,NW,315,1.6,1.6,80,0.00,,---,0.00,VWS V14.01,2013-04-21 12:17:00,
2013-04-21 22:22:00,58.8,52.7,29.65,NW,315,2.7,2.7,80,0.00,,---,0.00,VWS V14.01,2013-04-21 12:22:00,
2013-04-21 22:27:00,58.8,52.7,29.68,North,0,2.0,2.0,80,0.00,,---,0.00,VWS V14.01,2013-04-21 12:27:00,
2013-04-21 22:32:00,58.8,52.7,29.68,NNE,22,0.0,0.0,80,0.00,,---,0.00,VWS V14.01,2013-04-21 12:32:00,
2013-04-21 22:37:00,58.6,52.5,29.68,North,0,1.3,2.0,80,0.00,,---,0.00,VWS V14.01,2013-04-21 12:37:00,
2013-04-21 22:42:00,58.6,52.5,29.65,WNW,292,1.3,1.3,80,0.00,,---,0.00,VWS V14.01,2013-04-21 12:42:00,
2013-04-21 22:47:00,58.6,52.5,29.65,NW,315,2.0,2.0,80,0.00,,---,0.00,VWS V14.01,2013-04-21 12:47:00,
2013-04-21 22:52:00,58.6,52.5,29.65,NW,315,1.1,1.1,80,0.00,,---,0.00,VWS V14.01,2013-04-21 12:52:00,
2013-04-21 22:57:00,58.6,52.5,29.65,NNW,338,0.0,0.0,80,0.00,,---,0.00,VWS V14.01,2013-04-21 12:57:00,
2013-04-21 23:02:00,58.6,52.5,29.65,NW,315,0.0,0.0,80,0.00,,---,0.00,VWS V14.01,2013-04-21 13:02:00,
2013-04-21 23:07:00,58.5,52.3,29.65,NNW,338,0.0,0.0,80,0.00,,---,0.00,VWS V14.01,2013-04-21 13:07:00,
2013-04-21 23:11:00,58.5,52.3,29.65,North,0,0.0,0.0,80,0.00,,---,0.00,VWS V14.01,2013-04-21 13:11:00,
2013-04-21 23:16:00,58.5,52.3,29.65,WNW,292,0.0,0.0,80,0.00,,---,0.00,VWS V14.01,2013-04-21 13:16:00,
2013-04-21 23:21:00,58.5,52.7,29.65,NW,315,1.3,1.6,81,0.00,,---,0.00,VWS V14.01,2013-04-21 13:21:00,
2013-04-21 23:26:00,58.5,52.3,29.65,ENE,68,1.1,1.1,80,0.00,,---,0.00,VWS V14.01,2013-04-21 13:26:00,
2013-04-21 23:31:00,58.1,52.3,29.65,East,90,2.0,2.0,81,0.00,,---,0.00,VWS V14.01,2013-04-21 13:31:00,
2013-04-21 23:36:00,58.1,52.3,29.65,East,90,0.0,0.0,81,0.00,,---,0.00,VWS V14.01,2013-04-21 13:36:00,
2013-04-21 23:41:00,58.1,52.3,29.65,East,90,0.0,0.0,81,0.00,,---,0.00,VWS V14.01,2013-04-21 13:41:00,
2013-04-21 23:46:00,58.1,52.3,29.65,East,90,0.0,0.0,81,0.00,,---,0.00,VWS V14.01,2013-04-21 13:46:00,
2013-04-21 23:51:00,58.1,52.3,29.65,ESE,112,0.0,0.0,81,0.00,,---,0.00,VWS V14.01,2013-04-21 13:51:00,
2013-04-21 23:56:00,58.1,52.3,29.65,East,90,0.0,0.0,81,0.00,,---,0.00,VWS V14.01,2013-04-21 13:56:00,